Weather in Carnarvon

Australia     24°52′59″S   113°39′27″E
temp.,
°C
wind,
m/s
gust,
m/s
humid.,
%
clouds,
%
prec.,
mm/h
press.,
hPa
HPBL,
m
7 may, fri
fri723:00+22sw34615 0.0 1015331
02:00+22ssw33631 0.0 1014330
05:00+21s447238 0.3 1015241
08:00+21sse45700 0.5 1017453
11:00+24s55540 0.0 10171327
14:00+24s77560 0.0 10151219
17:00+23s67520 0.0 1016910
20:00+23s911660 0.0 1017576
8 may, sat
sat823:00+22sse1013680 0.0 1018468
02:00+21sse813610 0.0 1017387
05:00+19se713610 0.0 1017361
08:00+19se611615 0.0 1019356
11:00+23se78472 0.0 1018790
14:00+26sse67400 0.0 10151510
17:00+25s89490 0.0 1015720
20:00+23s811590 0.0 1017362
9 may, sun
sun923:00+22sse612525 0.0 1017289
02:00+21sse814535 0.0 1017380
05:00+20se814540 0.0 1016327
08:00+20se712560 0.0 1018301
11:00+26ese79395 0.0 1017638
14:00+29ese67320 0.0 10151301
17:00+28se583714 0.0 1015453
20:00+25sse59475 0.0 1016157
10 may, mon
mon1023:00+24se612447 0.0 1016212
02:00+22se6134594 0.0 1016281
05:00+21ese61347100 0.0 1016242
08:00+21e71349100 0.0 1017303
11:00+27ene7835100 0.0 1017573
14:00+29ene5632100 0.0 1015810
17:00+29e4433100 0.0 1015101
20:00+26ese5839100 0.0 1016109
11 may, tue
tue1123:00+25ese4639100 0.0 101676
02:00+25ene3338100 0.0 101528
05:00+24e3339100 0.0 101418
08:00+24nne2239100 0.0 101621
11:00+27ene2231100 0.0 1015177
14:00+27wnw453696 0.0 1014340
17:00+26s2246100 0.0 1014156
20:00+25se224599 0.0 101522